Regional Weather Roundup
Issued by NWS Wakefield, VA

Home | Current Version | Previous Version | Graphics & Text | Print | Product List | Glossary On
Versions: 1 2 3 4 5 6 7 8 9 10 11 12 13 14 15 16 17 18 19 20 21 22 23 24 25 26 27 28 29 30 31 32 33 34 35 36 37 38 39 40 41 42 43 44 45 46 47 48 49 50
000
ASUS41 KAKQ 281210
RWRAKQ

REGIONAL WEATHER ROUNDUP
NATIONAL WEATHER SERVICE WAKEFIELD VA
700 AM EST SAT FEB 28 2015

Note: "fair" indicates few or no clouds below 12,000 feet with no
significant weather and/or obstructions to visibility. * = Denotes
station may not report precipitation (e.g., rain,snow,etc.),
thunder or fog.

VAZ042-051-052>054-056-281300-
NORTHERN VIRGINIA

CITY           SKY/WX    TMP DP  RH WIND       PRES   REMARKS
WASH NATIONAL  PTCLDY    20   3  48 N7        30.82R
DULLES         PTCLDY    15  -1  49 N6        30.79R
FORT BELVOIR   CLEAR     15   4  61 N1        30.81R
QUANTICO       CLEAR     19   2  47 N8        30.83R
FREDERICKSBRG* CLEAR     20   4  51 N5        30.80R
STAFFORD*      CLEAR     16   0  49 N5        30.84R
WARRENTON      CLEAR     13   9  85 CALM      30.78S
CULPEPER*      PTCLDY    10   7  85 CALM      30.79R
MANASSAS*      CLEAR     12   5  73 CALM      30.80S
LEESBURG*      CLEAR     16   3  57 NE5       30.80R
WINCHESTER     CLEAR      9   0  66 CALM      30.75F
FRONT ROYAL*   FAIR       9   0  66 CALM      30.75S
LURAY*         FAIR      12   5  73 CALM      30.74R
$$

VAZ048-049-060>072-079>083-281300-
CENTRAL AND SOUTH CENTRAL VIRGINIA

CITY           SKY/WX    TMP DP  RH WIND       PRES   REMARKS
RICHMOND       PTCLDY    20   3  48 N7        30.78R
CHESTERFIELD*  FAIR      21  -4  33 N5        30.78R
PETERSBURG*    CLEAR     22   6  51 N5        30.78R
HANOVER        CLEAR     19   1  45 N5        30.79R
TAPPAHANNOCK*  CLEAR     20  -1  39 N5        30.80R
QUINTON*       FAIR      19   4  53 CALM      30.78R
CHARLOTTSVILLE PTCLDY    15   2  56 CALM      30.76R
GORDONSVILLE*  FAIR      10   4  74 CALM      30.77R
ORANGE*        PTCLDY    14   5  67 CALM      30.79R
LOUISA*        CLEAR     16   3  57 CALM      30.76R
BUMPASS*       FAIR      18   2  50 CALM      30.77R
FARMVILLE*     CLEAR     19   7  59 N5        30.75R
CREWE*         FAIR      20   4  51 CALM      30.75R
FORT PICKETT*  FAIR      19   5  52 NE5       30.75R
CHASE CITY*    FAIR      23  12  62 NE5       30.74R
CLARKSVILLE*   FAIR      23  10  58 NE8       30.73R
SOUTH HILL*    CLEAR     21   7  55 NE5       30.80R
LAWRENCEVILLE* FAIR      20  11  66 CALM      30.75R
EMPORIA*       CLEAR     21   9  58 N6        30.78R
$$

VAZ088>098-281300-
SOUTHEAST VIRGINIA

CITY           SKY/WX    TMP DP  RH WIND       PRES   REMARKS
NORFOLK        CLEAR     26  14  60 NE16      30.76R WCI  14
VIRGINIA BEACH PTCLDY    25  13  60 N10       30.76R WCI  15
NORFOLK NAVAL  MOCLDY    28  13  53 N16       30.78R WCI  16
WEST POINT*    CLEAR     19   8  61 CALM      30.81R
SALUDA*        FAIR      20   7  59 N5        30.78R
NEWPORT NEWS   CLEAR     23  10  57 N6        30.77R
LANGLEY AFB    CLOUDY    24  14  65 N10       30.77R WCI  13
FORT EUSTIS    PTCLDY    22  11  62 VRB5      30.76R
WILLIAMSBURG*  CLEAR     21  14  73 NE3       30.78R
HR EXEC AP*    FAIR      25  12  58 N3        30.79R
FRANKLIN*      CLEAR     22   9  58 N5        30.78R
WAKEFIELD      CLEAR     21   6  52 N3        30.77R
$$

VAZ020-022-025-037-045-281300-
WEST CENTRAL AND SOUTHWEST VIRGINIA

CITY           SKY/WX    TMP DP  RH WIND       PRES   REMARKS
STAUNTON*      MOCLDY    10   2  71 CALM      30.72R
WAYNESBORO*    FAIR       9   2  74 CALM      30.69R
HOT SPRINGS VA PTCLDY    11  -1  59 S7        30.44R
LYNCHBURG      CLEAR     18   6  59 NE9       30.73R
DANVILLE       CLEAR     24  14  65 NE8       30.73R
SOUTH BOSTON*  FAIR      22  10  60 NE5       30.74R
MARTINSVILLE   MOCLDY    23  13  65 N3        30.73R
ROANOKE        MOCLDY    19   5  54 CALM      30.71R
BLACKSBURG     CLOUDY    12   5  73 CALM      30.63R
DUBLIN*        CLOUDY    15   9  78 CALM      30.62R
MARION*        CLOUDY    14   7  75 NE7       30.59R
HILLSVILLE*    CLOUDY    14   7  72 CALM      30.56R
RICHLANDS*     CLOUDY    13   5  70 N3        30.51R
WISE*          PTCLDY    12   7  79 CALM      30.52R
ABINGDON*      CLOUDY    20  10  65 E8        30.54R
$$

MDZ021>025-VAZ099-100-281300-
SOUTHERN MARYLAND AND THE DELMARVA PENINSULA

CITY           SKY/WX    TMP DP  RH WIND       PRES   REMARKS
PATUXENT RIVER MOCLDY    19   3  49 NW9       30.80R
BAY BRIDGE APT   N/A     19   5  53 N7        30.81R
LEONARDTOWN    CLEAR     19   1  45 N3        30.81R
DOVER          CLEAR     14   6  69 N6        30.81R
GEORGETOWN     CLEAR     25   2  37 NW3       30.80R
EASTON         PTCLDY    19   5  53 N3        30.83R
CAMBRIDGE      CLEAR     21   5  49 N6        30.80R
SALISBURY      CLEAR     17   4  56 NW6       30.79R
OCEAN CITY     CLEAR     16   4  59 N8        30.79R
WALLOPS ISLAND CLEAR     17   7  64 N10       30.78R WCI   5
ACCOMACK*      CLEAR     19   7  58 N8        30.78R
$$

NCZ012>017-030>032-281300-
NORTH CENTRAL AND EASTERN NORTH CAROLINA

CITY           SKY/WX    TMP DP  RH WIND       PRES   REMARKS
ROANOKE RAPIDS FAIR      23  12  63 NE8       30.75R
RALEIGH        MOCLDY    26  17  68 NE10      30.71R WCI  16
ELIZABETH CITY CLEAR     27  17  66 N15       30.74R WCI  15
AHOSKIE*       CLEAR     24  13  65 N8        30.76R
EDENTON*       CLEAR     27  17  65 NE8G18    30.73R
CURRITUCK*     CLEAR     28  16  60 N15G22    30.74R WCI  17
KILL DEVIL HLS CLEAR     31  21  66 N12G20    30.70R WCI  22
MANTEO         CLEAR     30  21  69 N15G25    30.71R WCI  19
CAPE HATTERAS  PTCLDY    34  27  75 NE12G25   30.65R
TARBORO*       FAIR      26  20  78 NE12      30.75R WCI  16
GOLDSBORO      CLEAR     28  25  88 NE9       30.69R
WASHINGTON     CLEAR     28  17  64 NE12      30.71R WCI  17
GREENVILLE     CLEAR     28  18  64 NE14      30.70R WCI  17
NEW BERN       PTCLDY    29  23  78 NE13      30.70R WCI  19
WILMINGTON     PTCLDY    30  27  88 NE12      30.64R FOG     WCI  20
$$

VAZ048-281300-
ELSEWHERE

CITY           SKY/WX    TMP DP  RH WIND       PRES   REMARKS
HARRISBURG PA  CLEAR     10   1  67 CALM      30.80R
BALTIMORE      PTCLDY    15  -3  44 NW5       30.80R
ANNAPOLIS      CLEAR     18   3  52 N5        30.81R
ANDREWS AFB    CLEAR     15   2  54 N7        30.78S
PHILADELPHIA   PTCLDY    17  -2  43 N10       30.81R WCI   5
HENDERSON NC   PTCLDY    23  15  71 NE9       30.72R
GREENSBORO     CLOUDY    24  13  62 NE8       30.67R
ROCKY MOUNT    CLEAR     26  19  74 NE9       30.73R
$$

VAZ100-281300-
MARINE

STATION/POSITION TIME  TEMP    WIND        PRES    WAVE   SWELL
                       AIR SEA DIR/SP/G            HT/PER HT/PER
                 (UTC) (F)     (DEG/KT/KT) (MB)    (FT/S) (FT/S)
BRANDYWINE LGT   1200   20 29   20/ 16/ 18 1042.4R
CAPE MAY NJ      1200   18 32   30/  3/  5 1042.2R
LEWES DE         1200   22 30   20/ 14/ 16 1042.6R
15NM E FENWICK I 1200   26 36              1041.3R   4/11
OCEAN-CITY-INLET 1200   19 32  350/  8/ 10 1041.8R
WACHAPREAGUE VA  1200   19 32  350/  6/ 10 1042.2R
THOMAS POINT MD  1200   19 31  360/ 13/ 14 1043.9R
COVE POINT MD    1200   21      20/ 13/ 15 1042.5F
SOLOMONS ISLAND  1200      33                N/A
BISHOPS HEAD MD  1200   18 30  350/  7/ 10 1042.3R
CAMBRIDGE MD     1200   19 32  330/  5/  7 1042.9S
LEWISETTA VA     1200   22 31              1042.3S
RAPPAHANNOCK LGT 1200          360/ 20/ 22 1042.4R
STINGRAY PT      1200   25      20/ 14/ 19   N/A
YORK RVR RNG VA  1200   24      10/ 14/ 16 1041.3R
YORKTOWN VA      1200   21 32   10/  8/  9 1042.0S
DOMINION TERM VA 1200   24     360/  6/  7 1041.9R
KIPTOPEKE VA     1200      36   20/  6/  9   N/A
CHES BAY BRIDGE  1200   25 32   20/ 15/ 17 1041.3R
CAPE HENRY VA    1200   25      10/ 20/ 23 1040.2R
CHESAPEAKE LGHT  1100   26      10/ 18/ 20 1040.9R
WILLOUBY STN VA  1200   26     360/ 11/ 13 1042.1R
S CRANEY ISL VA  1200           20/ 11/ 15 1041.6R
CAPE HENRY BUOY  1200      35                N/A     5/ 6   2/11
1ST LANDING BUOY 1200   26      30/ 16/ 19 1041.3R
OFFSHORE WE BUOY 1200      37                N/A     6/11   3/11
64NM E OF VA BCH 1200   37 57   10/ 19/ 25 1038.9R   7/11   5/11
DUCK PIER NC     1200   30 35   10/ 21/ 24 1038.8R
44100 DUCK FRF   1100      36                N/A     7/ 6   2/11
44056 DUCK FRF   1200      35                N/A     6/ 6   2/11
OREGON INLET NC  1200   33 38  360/ 16/ 21 1039.2R
HATTERAS NC      1200   35 39   10/ 25/ 28 1037.9S
CAPE LOOKOUT NC  1100   34      20/ 19/ 25 1036.8R
$$



USA.gov is the U.S. government's official web portal to all federal, state and local government web resources and services.